Location: Hilton Head Island
(32.2163°N, 80.7526°W)
Time: 21:45:27
(UTC-05:00)

Explorer 7 - Pass Details

Date: 19 February 2026
Orbit: 430 x 542 km, 50.2° (Epoch: 5 March)

Event Time Altitude Azimuth Distance (km) Brightness Sun altitude
Rises 20:40:31 0° 320° (NW) 2,562 10.8 -31.9°
Enters shadow 20:42:25 - 327° (NNW) 1,836 9.9 -32.3°
Reaches altitude 10° 20:42:48 10° 330° (NNW) 1,700 - -32.4°
Maximum altitude 20:46:22 35° 37° (NE) 836 - -33.1°
Drops below altitude 10° 20:50:03 10° 105° (ESE) 1,753 - -33.9°
Sets 20:52:26 0° 114° (ESE) 2,656 - -34.4°
